| time (UTC) | temp F | wind direction | speed knots | gust knots | rain 1hr in | rain 24hr in | rain mn in | humidity % | barometer mb |
| 20260504214557 | 48 | 257 | 0.9 | 7.8 | 0.00 | 0.00 | 0.00 | 50 | 1003.1 |
| 20260504213055 | 52 | 240 | 0.9 | 6.1 | 0.00 | 0.00 | 0.00 | 45 | 1002.9 |
| 20260504211551 | 49 | 249 | 0.9 | 12.2 | 0.00 | 0.00 | 0.00 | 52 | 1003.3 |
| 20260504210105 | 49 | 257 | 2.6 | 10.4 | 0.00 | 0.00 | 0.00 | 49 | 1003.4 |
| 20260504204557 | 46 | 267 | 3.5 | 11.3 | 0.00 | 0.00 | 0.00 | 55 | 1003.5 |
| 20260504203103 | 48 | 253 | 3.5 | 9.6 | 0.00 | 0.00 | 0.00 | 53 | 1003.7 |
| 20260504201548 | 45 | 241 | 1.7 | 7.8 | 0.00 | 0.00 | 0.00 | 57 | 1003.9 |
| 20260504200048 | 47 | 254 | 2.6 | 9.6 | 0.00 | 0.00 | 0.00 | 47 | 1003.7 |
| 20260504194550 | 47 | 259 | 3.5 | 10.4 | 0.00 | 0.00 | 0.00 | 43 | 1003.6 |
| 20260504193049 | 48 | 262 | 2.6 | 9.6 | 0.00 | 0.00 | 0.00 | 40 | 1003.8 |
| 20260504191545 | 49 | 259 | 1.7 | 8.7 | 0.00 | 0.00 | 0.00 | 37 | 1003.5 |
| 20260504184537 | 48 | 279 | 0.0 | 7.0 | 0.00 | 0.00 | 0.00 | 45 | 1004.0 |
| 20260504183036 | 47 | 330 | 0.9 | 5.2 | 0.00 | 0.00 | 0.00 | 47 | 1004.2 |
| 20260504181540 | 45 | 262 | 0.9 | 9.6 | 0.00 | 0.00 | 0.00 | 47 | 1004.3 |
| 20260504180034 | 41 | 249 | 3.5 | 21.7 | 0.00 | 0.00 | 0.00 | 64 | 1004.5 |
| 20260504174534 | 42 | 264 | 7.0 | 17.4 | 0.00 | 0.00 | 0.00 | 65 | 1004.7 |
| 20260504173035 | 44 | 246 | 4.3 | 13.0 | 0.00 | 0.00 | 0.00 | 61 | 1004.5 |
| 20260504171532 | 47 | 255 | 6.1 | 13.0 | 0.00 | 0.00 | 0.00 | 50 | 1004.4 |
| 20260504081533 | 31 | 355 | 0.0 | 0.0 | 0.00 | 0.00 | 0.00 | 67 | 1006.4 |
| 20260504050010 | 37 | 355 | 0.0 | 0.0 | 0.00 | 0.00 | 0.00 | 54 | 1007.2 |
| 20260504044514 | 38 | 355 | 0.0 | 0.0 | 0.00 | 0.00 | 0.00 | 54 | 1007.3 |
| 20260504043010 | 37 | 355 | 0.0 | 0.0 | 0.00 | 0.00 | 0.00 | 56 | 1007.5 |
| 20260504041508 | 38 | 355 | 0.0 | 0.0 | 0.00 | 0.00 | 0.00 | 54 | 1007.7 |
| 20260504040008 | 39 | 355 | 0.0 | 0.0 | 0.00 | 0.00 | 0.00 | 50 | 1007.7 |
| 20260504034508 | 40 | 355 | 0.0 | 0.0 | 0.00 | 0.00 | 0.00 | 48 | 1007.6 |
| 20260504033008 | 40 | 355 | 0.0 | 0.0 | 0.00 | 0.00 | 0.00 | 46 | 1007.6 |
| 20260504031507 | 41 | 355 | 0.0 | 0.0 | 0.00 | 0.00 | 0.00 | 45 | 1007.5 |
| 20260504030007 | 40 | 355 | 0.0 | 0.0 | 0.00 | 0.00 | 0.00 | 48 | 1007.4 |
| 20260504024506 | 40 | 355 | 0.0 | 0.0 | 0.00 | 0.00 | 0.00 | 50 | 1007.2 |
| 20260504023006 | 41 | 355 | 0.0 | 0.0 | 0.00 | 0.00 | 0.00 | 50 | 1007.1 |
| 20260504021505 | 42 | 355 | 0.0 | 0.0 | 0.00 | 0.00 | 0.00 | 50 | 1007.0 |
| 20260504020005 | 43 | 355 | 0.0 | 0.9 | 0.00 | 0.00 | 0.00 | 49 | 1007.1 |
| 20260504014504 | 44 | 355 | 0.0 | 1.7 | 0.00 | 0.00 | 0.00 | 48 | 1007.0 |
| 20260504013010 | 45 | 355 | 0.0 | 0.9 | 0.00 | 0.00 | 0.00 | 46 | 1006.9 |
| 20260504011503 | 46 | 290 | 0.0 | 4.3 | 0.00 | 0.00 | 0.00 | 43 | 1006.8 |
| 20260504010004 | 49 | 314 | 0.0 | 2.6 | 0.00 | 0.00 | 0.00 | 37 | 1006.8 |
| 20260504004504 | 50 | 285 | 0.0 | 2.6 | 0.00 | 0.00 | 0.00 | 33 | 1006.6 |
| 20260504003001 | 51 | 275 | 0.0 | 4.3 | 0.00 | 0.00 | 0.00 | 31 | 1006.5 |
| 20260504001501 | 52 | 299 | 0.0 | 0.9 | 0.00 | 0.00 | 0.00 | 31 | 1006.7 |
| 20260504000101 | 52 | 299 | 0.0 | 1.7 | 0.00 | 0.00 | 0.00 | 31 | 1006.6 |
| 20260503234558 | 51 | 263 | 1.7 | 7.8 | 0.00 | 0.00 | 0.00 | 31 | 1006.8 |
| 20260503233103 | 52 | 259 | 2.6 | 8.7 | 0.00 | 0.00 | 0.00 | 31 | 1006.9 |
| 20260503231558 | 51 | 236 | 1.7 | 7.8 | 0.00 | 0.00 | 0.00 | 28 | 1006.9 |
| 20260503230058 | 54 | 265 | 1.7 | 6.1 | 0.00 | 0.00 | 0.00 | 25 | 1007.0 |
| 20260503224556 | 53 | 360 | 0.9 | 9.6 | 0.00 | 0.00 | 0.00 | 28 | 1006.8 |
| 20260503223056 | 55 | 272 | 1.7 | 8.7 | 0.00 | 0.00 | 0.00 | 23 | 1007.0 |
| 20260503221559 | 56 | 243 | 3.5 | 10.4 | 0.00 | 0.00 | 0.00 | 22 | 1006.8 |